Regional Weather Roundup
Issued by NWS

Home | Current Version | Previous Version | Text Only | Print | Product List | Glossary Off
Versions: 1 2 3 4 5 6 7 8 9 10 11 12 13 14 15 16 17 18 19 20 21 22 23 24 25 26 27 28 29 30 31 32 33 34 35 36 37 38 39 40 41 42 43 44 45 46 47 48 49 50

000
ASUS43 KMPX 211101
RWRMN
WEATHER ROUNDUP FOR MINNESOTA
NATIONAL WEATHER SERVICE TWIN CITIES/CHANHASSEN MN
600 AM CDT SAT OCT 21 2017


NOTE: "FAIR" INDICATES FEW OR NO CLOUDS BELOW 12,000 FEET WITH NO
SIGNIFICANT WEATHER AND/OR OBSTRUCTIONS TO VISIBILITY. N/A MEANS
CURRENT SKY AND/OR WEATHER CONDITIONS ARE NOT AVAILABLE.

MNZ060>063-068>070-211200-
   Twin Cities Metro

CITY           SKY/WX    TMP DP  RH WIND       PRES   REMARKS
TWIN CITIES    CLOUDY    63  54  72 S13G22    29.69S
ST PAUL        CLOUDY    63  54  72 S16       29.70S
CRYSTAL        CLOUDY    63  50  62 SE14      29.66S
BLAINE         PTCLDY    64  54  68 S18G25    29.67F
LAKEVILLE      CLOUDY    61  52  72 S12G20    29.69S
EDEN PRAIRIE   CLOUDY    63  53  70 S17       29.66F
SOUTH ST PAUL  CLOUDY    64  52  65 S12G21    29.70S
LAKE ELMO      CLOUDY    63  52  67 SE10      29.71F
$$
MNZ001>005-007-008-013>017-022>024-027-028-211200-
   Northwest Minnesota

CITY           SKY/WX    TMP DP  RH WIND       PRES   REMARKS
BEMIDJI        CLOUDY    63  56  78 S16G25    29.50R
HALLOCK        CLEAR     66  57  72 S21G29    29.32S
ROSEAU         PTCLDY    64  57  77 SE16G23   29.40S
WARROAD        PTCLDY    63  57  82 S16G23    29.43S
CROOKSTON      CLEAR     66  57  72 S24G33    29.37S
FOSSTON        CLEAR     63  54  72 S18G26    29.45R
DETROIT LAKES  CLEAR     61  55  82 S17G24    29.48R
MOORHEAD       CLEAR     64  57  77 S21G32    29.42R
PARK RAPIDS    PTCLDY    62  56  80 S18G28    29.52S
MAHNOMEN       FAIR      62  56  81 S15G21    29.45R
$$
MNZ006-009>011-018-025>026-211200-
   North Central Minnesota

CITY           SKY/WX    TMP DP  RH WIND       PRES   REMARKS
BAUDETTE       CLEAR     61  55  81 S16G23    29.47S
FLAG ISLAND    CLOUDY    55  52  88 S20       29.43R
INTL FALLS     PTCLDY    62  51  67 S10G18    29.54S
WASKISH        CLEAR     61  55  82 SE8       29.49S
BIG FORK       MOCLDY    63  54  72 S13       29.57R
LONGVILLE      CLOUDY    63  55  77 S13G22    29.57R
GRAND RAPIDS   CLOUDY    60  53  77 S16G24    29.61S
CRANE LAKE     PTCLDY    61  50  67 S6        29.62S
ORR            CLOUDY    61  50  67 S12G18    29.58S
COOK           MOCLDY    61  52  72 S14G20    29.62S
WALKER         CLOUDY    63  55  75 SE13G18   29.52F
$$
MNZ012-019>021-037-211200-
   Northeast Minnesota

CITY           SKY/WX    TMP DP  RH WIND       PRES   REMARKS
DULUTH         MOCLDY    58  52  80 S13       29.68F
ELY            PTCLDY    59  48  67 S13G20    29.66R
HIBBING        CLOUDY    60  52  74 S10G20    29.62F
EVELETH        PTCLDY    60  52  73 S10       29.65F
DULUTH HARBOR  CLOUDY    63  54  72 S12       29.68F
TWO HARBORS    PTCLDY    61  54  77 SE5       29.69S
SILVER BAY     CLOUDY    55  50  82 CALM      29.70S
GRAND MARAIS     N/A     54  50  86 NE3       29.74
G MARAIS ARPRT PTCLDY    55  45  67 S5        29.76F
$$
MNZ029>031-032-039>041-046>048-054>057-064-211200-
   West Central Minnesota

CITY           SKY/WX    TMP DP  RH WIND       PRES   REMARKS
FERGUS FALLS   PTCLDY    61  55  82 S17       29.48R
WHEATON        CLOUDY    61  55  82 SE14      29.47S
MORRIS         MOCLDY    63  57  82 SE15      29.50R
ALEXANDRIA     MOCLDY    61  56  83 SE16      29.54S
ELBOW LAKE     FAIR      60  56  87 SE18G25   29.49R
WADENA         MOCLDY    61  55  82 S16G22    29.52S
GLENWOOD       CLEAR     61  55  82 SE18      29.55R
APPLETON       PTCLDY    64  55  72 S8        29.50R
BENSON         MOCLDY    63  55  77 S12       29.53R
ORTONVILLE     PTCLDY    64  55  72 N10       29.47S
MADISON        CLOUDY    66  59  77 S10       29.49R
WILLMAR        FAIR      63  55  77 SE12G22   29.57S
$$
MNZ033>034-036-042>043-049>051-058-059-211200-
   Central Minnesota

CITY           SKY/WX    TMP DP  RH WIND       PRES   REMARKS
ST CLOUD       CLOUDY    63  55  75 S17       29.61S
SAUK CENTRE    CLOUDY    61  56  82 SE16G24   29.57R
PAYNESVILLE    CLOUDY    63  56  80 S16G23    29.58F
AITKIN         CLOUDY    57  52  82 SE14G21   29.59S
PINE RIVER     CLOUDY    59  52  77 S13       29.61R
BRAINERD       CLOUDY    62  54  74 S18G28    29.58F
STAPLES        CLOUDY    63  54  72 S15G22    29.55S
LONG PRAIRIE   CLOUDY    61  54  77 SE17G24   29.56S
LITTLE FALLS   CLOUDY    61  48  63 SE12G18   29.59S
LITCHFIELD     PTCLDY    63  55  77 SE10G18   29.60F
BUFFALO        CLOUDY    64  54  69 SE14G22   29.64F
MAPLE LAKE     MOCLDY    64  56  76 S9G16     29.64S
HUTCHINSON     MOCLDY    62  56  79 SE15G23   29.63S
$$
MNZ037-044-045-052-053-211200-
   East Central Minnesota

CITY           SKY/WX    TMP DP  RH WIND       PRES   REMARKS
PRINCETON      CLOUDY    63  54  72 SE10G17   29.64S
MORA           MOCLDY    59  50  72 S8G16     29.67S
CAMBRIDGE      CLOUDY    64  52  63 SE13G18   29.66F
RUSH CITY      CLOUDY    63  52  68 S14G21    29.67F
MOOSE LAKE     PTCLDY    61  52  72 S8        29.64F
HINCKLEY       FAIR      61  52  72 SE8       29.67S
CLOQUET        CLOUDY    61  50  67 S6        29.66F
MCGREGOR       MOCLDY    61  52  72 S13G22    29.63S
$$
MNZ071>073-080-081-089-090-097-098-211200-
   Southwest Minnesota

CITY           SKY/WX    TMP DP  RH WIND       PRES   REMARKS
MONTEVIDEO     PTCLDY    63  57  82 S13G18    29.50F
GRANITE FALLS  CLOUDY    65  58  80 SE18      29.54F
CANBY          MOCLDY    65  58  78 S12       29.50S
MARSHALL       CLOUDY    65  57  75 S22G31    29.52F
REDWOOD FALLS  MOCLDY    62  55  77 SE17      29.57S
OLIVIA         PTCLDY    61  54  77 S15G22    29.57S
PIPESTONE      CLOUDY    63  55  77 S18G25    29.53S
WORTHINGTON    CLOUDY    64  58  80 S18G28    29.59R
JACKSON        CLOUDY    61  55  82 S20G26    29.64R
TRACY          MOCLDY    64  59  82 S16G28    29.54R
SLAYTON        CLOUDY    63  58  82 S18G26    29.57S
$$
MNZ065>067-074>077-082>085-091>093-211200-
   South Central Minnesota

CITY           SKY/WX    TMP DP  RH WIND       PRES   REMARKS
NEW ULM          N/A     61  54  77 S17G23    29.62S
ST JAMES       CLOUDY    63  55  77 S24G30    29.64R
FAIRMONT       TSTM      59  57  93 S18G25    29.65S
GLENCOE        CLOUDY    64  55  71 S13G25    29.63S
FARIBAULT      CLOUDY    63  54  72 SE16G22   29.70F
OWATONNA       MOCLDY    61  52  72 S20G30    29.70F
WASECA         TSTM      55  54  94 S13G22    29.72R
$$
MNZ078>079-086>088-094>096-211200-
   Southeast Minnesota

CITY           SKY/WX    TMP DP  RH WIND       PRES   REMARKS
ROCHESTER      MOCLDY    59  51  75 S14G22    29.78S
RED WING       CLOUDY    64  48  55 S12G17    29.73S
STANTON        MOCLDY    63  53  69 S20G25    29.69F
DODGE CENTER   MOCLDY    61  52  72 S22G29    29.74S
WINONA         MOCLDY    63  50  63 S8        29.80S
AUSTIN         TSTM      59  54  82 S12G22    29.77R
PRESTON        CLOUDY    60  51  73 S14G26    29.80S
$$
ABBREVIATIONS USED IN REMARKS
   TC - TEMPERATURES IN CELSIUS
  WCI - WIND CHILL INDEX
   HX - HEAT INDEX
  VSB - VISIBILITY
$$



USA.gov is the U.S. government's official web portal to all federal, state and local government web resources and services.